Probability
23 45 61 61 58 58 61 58 55 55 52 52 55 52 39 32 35 29 26 32 32 39 26 19 19 10 19 16 13 16 13 13 13 13 16 13 6 6 6 6 3 0 10
29 45 58 58 58 61 61 58 58 58 55 55 52 48 42 42 29 32 26 32 32 26 26 19 16 13 10 13 13 10 10 6 3 6 13 6 6 6 6 10 3 3 6
29 35 52 52 58 58 65 58 58 58 55 52 48 45 39 39 39 35 29 29 39 32 23 19 13 10 13 3 6 6 6 10 3 3 0 0 3 6 6 6 10 10 6
29 39 42 55 55 55 58 58 55 58 55 48 45 42 42 42 45 35 23 26 29 35 16 19 13 6 10 6 3 6 6 6 3 3 0 0 0 3 3 6 3 10 3
29 39 48 52 52 55 58 58 55 55 45 45 42 45 39 35 35 32 26 23 26 26 16 16 6 10 10 6 3 3 3 3 0 0 0 0 0 3 6 6 6 6 6
26 35 45 55 52 55 58 58 61 55 48 42 35 35 35 39 35 26 26 26 16 23 16 10 6 3 6 6 3 3 3 0 0 0 0 0 0 6 6 3 3 10 3
26 39 42 52 48 52 52 55 61 58 48 35 32 32 35 32 26 26 26 19 19 13 13 6 10 3 6 6 6 3 0 0 0 0 0 0 0 6 6 3 6 3 3
23 32 35 48 48 48 45 48 55 55 45 35 29 32 32 29 19 29 26 23 23 13 10 10 3 6 10 6 6 6 3 0 0 0 0 0 0 0 0 0 0 0 0
23 29 29 35 42 42 45 42 42 48 35 39 35 35 29 29 26 26 29 26 23 19 10 13 6 10 10 6 6 3 0 0 0 0 0 0 0 3 0 0 0 0 0
19 23 29 29 29 32 29 26 29 29 29 35 32 26 16 23 23 16 19 19 16 10 10 10 10 10 10 6 3 3 0 0 0 0 0 0 0 0 0 0 0 0 0
23 19 23 19 23 23 23 19 23 19 19 19 23 13 10 10 6 6 6 6 10 10 3 3 10 6 3 3 0 0 0 0 0 0 0 0 0 3 0 0 0 3 0
19 16 16 23 19 16 19 19 16 10 10 3 6 3 3 3 6 6 0 0 6 3 3 3 0 0 0 0 0 0 0 0 0 0 0 0 6 6 0 0 0 3 3
19 16 16 19 23 16 16 13 10 6 6 6 0 3 3 3 0 3 3 0 0 0 0 0 0 0 0 0 0 0 0 0 0 0 0 0 6 6 3 3 3 3 3
13 19 16 16 13 13 10 13 10 10 6 6 3 6 3 3 3 3 3 0 0 0 0 0 0 0 0 0 0 0 0 0 0 0 0 0 0 3 3 3 3 6 3
10 10 10 13 13 13 10 6 6 6 6 3 6 6 3 3 3 3 3 3 0 0 0 0 0 0 0 0 0 0 0 0 0 0 0 0 0 0 3 3 6 6 6
10 10 10 6 6 6 6 6 3 3 3 3 3 3 3 6 3 3 3 3 3 0 0 0 0 0 0 0 0 0 0 0 0 0 0 0 0 0 3 3 3 6 6
6 3 6 6 6 6 6 6 6 6 6 3 3 3 3 3 3 3 3 3 3 0 0 0 0 0 0 0 0 0 0 0 0 0 0 0 0 0 0 0 3 3 3
6 3 3 3 3 6 6 3 3 6 6 3 3 3 3 3 3 3 0 0 0 0 0 0 0 0 0 0 0 0 0 0 0 0 0 0 0 0 0 0 0 3 3
6 3 3 3 3 3 6 3 3 3 3 3 3 3 3 3 0 0 0 0 0 0 0 0 0 0 0 0 0 0 0 0 0 0 0 0 0 0 0 0 0 0 0
6 3 3 3 3 3 3 3 3 3 3 3 3 3 3 0 0 0 0 0 0 0 0 0 0 0 0 0 0 0 0 0 0 0 0 0 0 0 0 0 0 0 0
0 3 3 3 3 3 3 3 3 3 3 3 3 3 0 0 0 0 0 0 0 0 0 0 0 0 0 0 0 0 0 0 0 0 0 0 0 0 0 0 0 0 0
0 0 3 3 3 3 3 3 3 3 3 3 3 3 0 0 0 0 0 0 0 0 0 0 0 0 0 0 0 0 0 0 0 0 0 0 0 0 0 0 0 0 0
0 0 0 0 3 3 3 3 3 3 3 3 0 3 0 0 0 0 0 0 0 0 0 0 0 0 0 0 0 0 0 0 0 0 0 0 0 0 0 0 0 0 0
0 0 0 0 0 0 0 3 3 3 0 0 0 0 0 0 0 0 0 0 0 0 0 0 0 0 0 0 0 0 0 0 0 0 0 0 0 0 0 0 0 0 0
0 0 0 0 0 0 0 0 3 3 0 0 0 0 0 0 0 0 0 0 0 0 0 0 0 0 0 0 0 0 0 0 0 0 0 0 0 0 0 0 0 0 0
0 0 0 0 0 0 0 0 0 0 0 0 0 0 0 0 0 0 0 0 0 0 0 0 0 0 0 0 0 0 0 0 0 0 0 0 0 0 0 0 0 0 0
Height
5838 5839 5840 5841 5842 5843 5844 5845 5846 5848 5849 5850 5851 5852 5853 5853 5854 5855 5856 5857 5857 5858 5858 5859 5859 5859 5860 5860 5860 5861 5861 5861 5861 5861 5862 5862 5862 5861 5861 5861 5861 5861 5861
5835 5836 5837 5839 5840 5841 5842 5843 5844 5845 5847 5848 5849 5850 5851 5852 5853 5853 5854 5855 5855 5856 5856 5857 5857 5858 5858 5858 5858 5859 5859 5859 5860 5860 5860 5860 5860 5860 5860 5860 5860 5860 5859
5832 5833 5835 5836 5837 5838 5839 5841 5842 5843 5844 5845 5846 5847 5848 5849 5850 5851 5852 5852 5853 5854 5854 5855 5855 5856 5856 5856 5856 5856 5857 5857 5857 5858 5858 5858 5858 5858 5858 5858 5858 5857 5857
5828 5830 5831 5833 5834 5835 5836 5838 5839 5840 5841 5842 5843 5844 5845 5846 5847 5848 5849 5850 5851 5851 5852 5852 5853 5853 5854 5854 5854 5854 5854 5854 5855 5855 5855 5855 5855 5855 5855 5855 5855 5855 5854
5824 5826 5828 5829 5831 5832 5833 5834 5835 5837 5838 5839 5840 5841 5842 5843 5844 5845 5846 5847 5848 5848 5849 5850 5850 5850 5851 5851 5851 5851 5851 5851 5851 5852 5852 5852 5852 5852 5852 5852 5852 5852 5851
5820 5822 5824 5825 5827 5828 5829 5830 5832 5833 5834 5835 5836 5837 5838 5839 5841 5842 5843 5844 5845 5845 5846 5846 5847 5847 5847 5848 5848 5848 5848 5848 5848 5848 5848 5848 5848 5848 5848 5848 5848 5848 5848
5815 5817 5819 5821 5822 5824 5825 5826 5828 5829 5830 5831 5832 5834 5835 5836 5837 5838 5839 5840 5841 5842 5842 5843 5843 5843 5844 5844 5844 5844 5844 5844 5844 5844 5844 5844 5844 5844 5844 5844 5844 5844 5844
5810 5812 5814 5816 5817 5819 5820 5822 5823 5825 5826 5827 5828 5830 5830 5832 5833 5834 5835 5836 5837 5838 5838 5839 5839 5840 5840 5840 5840 5840 5840 5840 5840 5840 5840 5840 5840 5840 5840 5840 5840 5840 5840
5805 5807 5808 5810 5812 5814 5815 5817 5819 5820 5821 5823 5824 5825 5826 5827 5829 5830 5831 5832 5833 5833 5834 5835 5835 5835 5835 5835 5835 5835 5836 5836 5836 5836 5836 5836 5836 5836 5836 5836 5836 5836 5836
5799 5801 5803 5805 5807 5808 5810 5812 5813 5815 5816 5818 5819 5820 5822 5823 5824 5825 5826 5827 5828 5829 5829 5830 5831 5831 5831 5831 5831 5831 5831 5831 5831 5832 5832 5832 5831 5832 5832 5832 5832 5832 5832
5792 5795 5797 5799 5801 5802 5804 5806 5808 5810 5811 5813 5814 5816 5817 5818 5819 5820 5821 5822 5823 5824 5825 5825 5826 5826 5826 5826 5826 5826 5826 5827 5827 5827 5827 5827 5827 5827 5827 5827 5828 5828 5828
5786 5788 5790 5792 5795 5796 5798 5800 5802 5804 5806 5807 5808 5810 5812 5813 5814 5815 5816 5817 5818 5819 5819 5820 5820 5821 5821 5821 5821 5821 5821 5822 5822 5822 5822 5822 5822 5822 5822 5823 5823 5823 5823
5778 5780 5783 5786 5788 5790 5792 5794 5796 5797 5799 5801 5802 5804 5806 5807 5808 5810 5811 5812 5812 5813 5814 5814 5815 5815 5815 5816 5816 5816 5816 5817 5817 5817 5817 5817 5817 5817 5818 5818 5818 5818 5818
5771 5773 5775 5778 5781 5783 5784 5787 5789 5791 5792 5794 5796 5798 5799 5801 5802 5804 5804 5805 5806 5807 5808 5808 5808 5809 5809 5810 5810 5810 5811 5811 5812 5812 5811 5812 5812 5812 5812 5813 5813 5813 5813
5762 5765 5767 5770 5772 5775 5777 5779 5781 5783 5785 5787 5789 5791 5793 5794 5796 5797 5798 5799 5800 5801 5801 5802 5802 5803 5803 5804 5804 5804 5805 5805 5806 5806 5806 5806 5807 5807 5807 5807 5808 5808 5808
5754 5756 5759 5761 5764 5766 5769 5771 5773 5776 5778 5780 5782 5783 5785 5787 5789 5790 5791 5792 5793 5794 5795 5795 5796 5796 5797 5797 5798 5798 5799 5799 5799 5800 5800 5801 5801 5801 5801 5801 5802 5802 5802
5745 5747 5750 5752 5755 5758 5760 5762 5765 5767 5770 5772 5774 5775 5777 5779 5781 5783 5784 5785 5786 5787 5788 5789 5789 5790 5790 5791 5791 5791 5792 5792 5793 5794 5794 5795 5795 5795 5795 5795 5795 5795 5795
5735 5738 5741 5743 5745 5748 5751 5754 5756 5758 5761 5763 5765 5767 5769 5771 5773 5774 5776 5778 5779 5780 5781 5782 5782 5783 5783 5784 5784 5785 5785 5786 5786 5787 5787 5788 5788 5789 5789 5789 5789 5789 5789
5725 5728 5731 5732 5735 5738 5741 5744 5747 5749 5752 5754 5756 5758 5760 5762 5764 5766 5768 5770 5771 5772 5773 5774 5775 5776 5776 5776 5777 5778 5778 5779 5779 5780 5780 5781 5781 5782 5782 5782 5783 5782 5782
5715 5718 5721 5723 5726 5728 5731 5734 5737 5740 5742 5744 5747 5749 5752 5754 5756 5758 5760 5761 5763 5764 5765 5766 5767 5768 5768 5769 5769 5770 5771 5771 5772 5772 5773 5774 5774 5774 5775 5775 5775 5775 5775
5706 5709 5712 5714 5717 5719 5722 5724 5727 5730 5732 5735 5737 5740 5743 5745 5747 5749 5751 5753 5755 5756 5757 5758 5759 5760 5761 5761 5762 5762 5763 5763 5764 5765 5765 5766 5766 5767 5767 5768 5768 5768 5768
5697 5700 5703 5706 5708 5710 5713 5715 5717 5720 5723 5725 5728 5731 5734 5736 5738 5740 5742 5744 5746 5748 5749 5750 5751 5752 5752 5753 5753 5754 5755 5757 5757 5758 5758 5758 5759 5759 5759 5760 5760 5760 5760
5688 5691 5694 5697 5699 5701 5704 5706 5708 5711 5713 5716 5719 5722 5724 5727 5729 5731 5733 5735 5737 5739 5740 5741 5742 5743 5744 5745 5745 5746 5747 5748 5749 5750 5750 5750 5751 5751 5751 5752 5751 5751 5751
5679 5682 5685 5687 5690 5692 5695 5697 5699 5702 5705 5707 5710 5713 5715 5718 5720 5722 5724 5726 5728 5730 5731 5732 5733 5734 5735 5736 5737 5737 5738 5739 5740 5741 5742 5742 5742 5743 5743 5743 5743 5743 5742
5670 5673 5676 5678 5681 5683 5686 5688 5690 5693 5696 5698 5701 5703 5706 5709 5711 5713 5715 5717 5718 5720 5722 5723 5724 5725 5726 5727 5728 5729 5729 5730 5731 5732 5733 5734 5734 5734 5734 5734 5733 5733 5732
5661 5664 5667 5669 5671 5674 5676 5679 5681 5684 5686 5689 5691 5694 5697 5699 5702 5704 5706 5707 5709 5711 5712 5714 5715 5716 5717 5718 5719 5720 5720 5721 5722 5723 5723 5724 5725 5725 5724 5724 5723 5723 5722
Wind_Speed
17 17 17 17 16 16 16 16 15 15 15 15 14 14 13 13 13 13 12 11 11 10 10 9 9 9 9 9 9 9 9 9 8 8 8 8 7 7 7 7 8 8 9
18 18 18 18 18 18 17 17 17 17 16 16 16 15 15 14 14 14 14 13 13 12 12 11 11 10 11 11 11 11 11 11 11 11 11 11 11 10 9 9 9 10 10
20 20 19 19 20 19 19 19 19 19 18 18 17 17 17 16 15 15 15 15 14 14 13 13 13 13 13 13 13 13 13 13 14 13 13 13 13 13 12 11 11 12 12
21 21 21 21 21 20 20 20 20 20 19 19 19 18 18 18 17 17 16 16 16 15 15 15 14 14 15 15 15 15 15 15 15 15 15 15 15 15 14 14 14 14 14
23 22 22 22 22 22 22 21 21 20 20 20 19 20 20 19 19 18 18 18 17 17 16 16 16 16 17 17 17 17 17 17 17 17 17 17 17 17 16 16 16 16 16
25 25 24 24 23 23 23 23 22 22 22 21 20 20 21 21 21 20 19 19 19 18 17 17 17 17 18 18 19 19 19 18 19 19 19 18 18 18 18 18 17 17 17
26 26 26 26 25 25 24 24 23 23 23 23 22 22 21 21 21 21 20 20 20 20 19 19 19 19 19 19 19 19 20 20 20 20 20 20 19 19 19 19 18 18 18
28 27 27 27 27 26 25 25 25 25 24 24 23 22 22 21 21 21 22 22 21 22 21 21 20 20 20 20 20 20 20 20 20 21 21 20 20 20 20 20 19 19 19
29 29 28 29 28 28 27 26 26 25 25 24 24 23 23 23 22 23 23 23 22 22 22 22 20 20 20 20 20 20 21 21 20 20 20 20 20 21 21 20 20 20 20
30 30 30 30 30 29 28 28 27 27 26 26 25 25 24 24 24 24 24 23 23 23 23 23 22 21 21 21 21 21 21 21 20 20 20 20 20 20 20 20 20 20 20
31 31 31 31 31 31 30 29 29 29 28 28 27 26 25 25 25 25 24 25 25 25 25 24 23 23 23 23 23 23 22 22 22 21 21 21 21 21 21 21 21 21 21
32 32 32 31 31 31 31 31 31 31 30 30 29 28 27 27 26 25 25 26 26 26 26 26 26 25 25 25 25 25 24 24 23 23 23 22 22 22 22 22 22 22 22
34 33 33 33 32 32 33 32 32 32 32 32 31 30 29 29 28 27 27 27 27 27 28 27 28 27 27 27 27 27 26 25 25 24 24 24 23 23 23 23 23 23 23
35 35 35 34 34 34 34 34 34 34 34 34 33 32 31 31 30 29 28 28 28 28 29 30 30 29 29 29 28 28 27 26 26 25 25 25 25 25 24 24 24 24 25
37 37 36 36 35 36 36 35 35 35 35 34 34 34 33 32 31 30 30 30 29 30 30 31 31 31 30 30 30 29 28 28 26 27 26 26 26 26 26 26 26 26 26
37 38 38 38 37 37 37 37 36 36 36 35 35 35 34 34 33 32 32 31 31 31 30 31 31 31 30 30 31 30 30 30 28 28 28 28 28 28 28 28 28 28 28
37 38 38 38 38 38 38 38 37 37 37 36 36 36 35 34 34 34 33 33 32 32 31 31 31 31 31 31 32 32 31 30 29 29 29 30 30 29 29 29 29 29 29
38 38 38 39 39 39 39 38 38 38 37 37 37 37 36 36 35 34 35 34 34 33 33 33 33 32 32 32 32 32 32 31 30 31 31 30 30 30 30 30 30 30 30
39 39 39 39 39 39 39 39 40 39 39 38 37 37 37 37 36 35 35 36 35 34 33 33 34 33 33 32 32 32 32 33 32 32 32 31 31 31 31 31 31 31 31
39 40 39 39 39 39 39 40 40 40 40 40 38 38 37 37 37 37 37 37 37 35 34 34 35 35 34 34 33 33 33 33 33 33 33 32 33 33 32 32 32 32 32
38 39 38 38 37 38 38 38 40 40 40 40 39 38 38 37 38 38 39 38 38 37 36 35 36 36 35 35 35 35 34 34 33 33 33 33 33 33 33 33 33 33 33
38 38 38 38 38 38 38 39 40 39 40 40 40 39 38 39 39 40 39 38 39 38 37 37 37 36 35 35 35 35 35 35 35 34 33 33 34 34 34 34 35 34 33
37 37 38 39 39 39 39 39 40 40 40 40 39 39 39 39 39 40 39 39 39 39 38 37 36 36 36 36 35 36 35 35 35 35 35 35 34 34 35 35 35 35 35
37 37 38 38 39 39 39 39 40 40 39 39 39 39 39 39 38 39 39 39 39 39 38 37 36 36 35 35 36 36 36 35 35 34 35 35 36 36 36 36 37 36 36
37 37 38 39 39 39 39 39 40 40 40 39 39 39 39 39 39 39 39 40 40 39 37 37 36 36 35 35 36 36 36 36 36 36 35 36 37 37 37 38 37 38 38
37 37 38 39 39 39 39 39 39 38 39 39 39 39 39 39 40 39 39 40 39 39 38 37 36 36 36 36 36 36 37 37 37 38 37 37 38 38 38 39 39 39 40
Wind_Direction
244 246 245 240 239 240 239 239 240 241 242 242 242 239 237 238 238 237 238 240 242 243 246 250 253 254 256 260 263 265 266 268 269 271 275 279 283 286 289 289 285 285 288
244 245 246 246 244 244 244 242 242 243 243 244 245 243 240 241 241 241 242 244 246 248 250 252 255 259 260 262 264 266 268 270 272 274 276 278 281 281 284 286 285 284 285
244 245 246 247 247 246 246 245 245 245 244 245 246 245 243 242 244 245 246 247 249 252 253 255 257 260 263 265 266 268 269 271 273 275 276 277 279 280 280 282 283 283 283
245 245 246 247 248 248 248 248 247 247 246 245 245 246 245 244 245 246 247 249 251 253 256 258 260 262 264 267 268 269 270 272 274 275 277 277 278 279 280 280 280 279 279
246 245 246 247 248 249 249 247 245 245 245 245 246 247 246 246 247 247 250 251 253 255 257 259 262 264 266 268 270 270 272 273 274 275 276 277 278 279 280 279 279 279 278
247 247 246 247 248 249 248 247 245 245 246 247 247 247 248 248 249 250 251 253 255 257 257 259 263 265 267 268 270 271 272 273 274 274 275 276 277 278 278 278 277 278 278
247 247 246 247 248 248 248 247 247 248 248 248 248 248 249 249 250 251 253 255 257 259 260 262 264 266 268 269 271 272 273 273 273 273 274 275 276 276 276 276 276 276 276
248 247 246 247 247 247 247 247 247 247 247 249 250 249 251 253 253 253 254 256 259 260 262 264 265 266 268 269 271 272 272 272 272 272 273 273 274 273 274 275 274 274 274
248 248 247 247 247 248 247 247 248 247 247 248 250 250 251 252 256 256 256 257 258 260 262 264 264 266 267 270 271 273 273 273 273 273 274 274 274 273 274 274 273 273 273
248 248 248 247 247 248 248 248 248 249 248 248 249 250 252 253 255 256 256 258 259 260 261 262 264 266 268 270 272 273 274 274 275 275 274 274 273 273 273 274 274 275 275
248 248 248 248 248 248 248 248 248 249 249 250 251 252 252 254 254 256 258 257 259 261 262 263 263 267 269 270 271 272 274 274 274 275 275 274 273 273 273 273 273 275 277
248 247 248 248 248 248 248 248 248 248 249 250 251 251 252 254 255 257 259 259 258 260 262 263 265 267 269 270 271 272 273 273 273 274 275 273 273 273 273 273 273 275 277
249 249 249 249 249 249 248 248 249 249 249 250 251 251 252 253 255 257 259 260 260 260 262 264 267 267 269 270 271 271 271 271 270 271 272 272 273 274 274 274 274 276 277
249 249 249 250 250 249 248 249 249 250 250 249 251 252 253 254 256 258 260 261 261 261 263 264 266 266 267 268 270 271 270 269 269 269 270 271 272 273 273 273 274 276 277
248 249 249 249 249 250 249 249 249 249 250 250 251 253 254 255 257 259 261 263 262 262 263 265 267 266 267 268 269 269 267 267 268 268 268 269 271 272 272 273 274 276 277
248 249 249 249 249 249 249 249 249 249 250 250 251 253 254 256 257 258 261 261 261 263 263 265 266 267 268 268 269 268 266 265 266 267 268 269 270 271 272 273 274 276 277
248 249 249 249 249 249 249 249 249 250 251 251 251 252 253 255 257 257 258 259 260 262 263 264 265 266 267 269 268 268 266 266 266 267 268 269 269 270 272 273 274 276 277
247 249 250 249 248 248 248 249 249 249 250 251 250 251 253 255 257 258 257 257 259 262 263 265 265 266 267 269 268 267 266 265 267 267 267 269 270 270 271 272 274 275 277
247 248 249 248 247 247 248 248 248 249 249 250 251 251 252 254 256 258 257 257 258 261 263 265 266 266 267 267 266 266 267 267 267 267 267 269 269 270 271 271 272 274 276
248 248 249 247 247 247 247 248 248 249 249 250 250 251 252 254 256 257 258 257 258 260 262 264 265 265 266 266 265 266 267 267 267 266 267 269 268 269 270 271 273 274 276
249 249 249 247 247 247 247 248 249 249 249 249 249 251 252 254 255 256 257 258 259 260 262 264 265 265 265 264 264 266 266 266 265 265 267 268 268 268 269 270 272 274 276
249 249 249 248 247 247 248 249 249 248 248 249 250 251 252 254 256 255 256 259 259 260 262 264 265 265 265 264 265 265 265 265 264 265 267 267 268 269 270 271 272 274 276
250 249 249 249 248 248 248 250 249 248 249 249 250 251 252 254 255 255 257 259 261 262 263 265 266 266 266 265 265 266 266 265 264 265 266 267 268 270 271 272 273 274 276
249 249 248 248 249 248 248 250 249 249 248 250 251 252 253 254 256 256 257 260 262 262 263 265 265 265 265 265 265 266 266 266 265 265 266 268 269 270 272 272 273 275 277
250 249 249 249 250 250 250 251 250 250 250 251 252 253 253 255 256 257 258 260 261 261 262 263 263 264 265 265 266 267 266 266 267 268 268 268 269 271 272 272 274 275 276
250 249 249 248 249 250 252 252 251 251 251 251 251 253 253 254 256 257 259 260 260 259 261 261 262 263 265 266 266 267 267 267 268 269 269 269 270 270 272 273 274 275 276